Wetbulb
42.03 42.36 42.59 42.88 43.05 43.60 37.90 26.95 16.76 37.83 42.86 34.30 31.44 25.95 30.69 36.17 34.22 37.15 34.75 35.93 35.71 32.01 31.61 30.50 29.62 30.85 34.85 41.09 40.37 35.72 37.64 33.75 28.69 33.47 37.94 39.18 37.09 35.57 34.11 26.30 21.95 24.93 23.93 25.02
41.74 42.16 42.27 42.24 42.77 43.22 35.43 22.22 23.59 37.25 41.34 26.81 24.08 30.63 32.60 34.35 33.03 33.29 33.79 33.19 35.54 34.32 31.34 28.83 33.21 33.19 38.86 40.92 39.42 35.92 36.88 28.55 25.87 29.32 33.45 34.90 33.63 35.68 35.31 32.68 29.80 27.29 22.66 25.01
41.17 41.70 41.78 41.75 42.42 43.02 32.35 25.16 21.89 27.10 35.20 32.06 27.35 26.35 27.40 29.28 34.91 33.47 35.96 33.87 34.72 33.01 31.52 34.55 31.79 33.60 39.02 40.30 40.80 44.23 41.16 31.43 29.40 25.21 29.80 32.86 31.21 35.62 36.22 34.19 27.13 27.87 27.97 30.74
40.80 41.10 41.43 41.44 42.03 42.62 32.07 23.64 17.26 29.23 21.98 25.13 26.14 27.35 28.80 28.49 28.33 33.73 35.21 33.49 33.34 32.15 28.80 29.76 31.12 35.30 36.85 38.63 41.47 40.68 37.13 29.32 31.02 32.93 36.35 35.35 33.56 34.73 35.40 32.67 32.40 30.07 31.99 32.73
40.83 41.33 40.98 40.93 41.62 41.90 29.09 27.38 27.53 28.53 26.49 27.20 25.05 26.15 26.22 25.79 27.96 29.06 30.12 30.65 32.34 33.24 31.29 32.09 29.16 33.87 34.25 33.73 36.95 35.48 35.27 28.24 30.26 25.98 35.27 35.84 32.97 34.33 35.58 35.00 33.82 33.50 34.60 33.73
41.18 40.98 40.73 40.41 40.92 39.40 32.61 34.48 35.07 31.00 23.69 24.34 23.05 24.28 25.24 26.42 28.81 29.24 31.66 31.52 31.40 31.38 34.16 35.91 36.35 36.60 37.24 37.09 34.46 32.53 33.26 28.97 27.15 26.02 32.66 33.39 27.19 31.21 34.03 34.13 35.42 35.41 30.57 35.68
40.51 40.53 40.68 40.39 40.27 39.99 36.58 35.18 33.31 27.14 17.83 22.78 24.32 25.57 26.11 25.41 27.73 27.01 30.94 34.36 33.98 36.11 37.84 37.80 39.03 37.50 37.27 37.08 36.41 36.61 31.75 30.92 28.16 22.76 29.40 20.25 32.23 37.56 37.19 36.30 36.27 37.42 37.37 37.69
40.80 40.31 40.63 40.64 40.14 40.39 36.71 33.67 32.06 27.37 18.57 24.01 25.19 26.16 25.27 27.64 29.42 29.11 29.76 33.19 35.16 35.61 34.99 29.65 28.05 27.82 30.30 29.80 34.53 36.14 35.87 30.99 27.44 22.97 22.06 28.00 32.50 35.56 34.49 33.33 33.18 37.15 38.98 38.75
41.27 41.24 40.94 40.72 40.27 40.20 37.02 32.77 36.13 33.26 24.60 19.87 27.46 24.20 26.84 23.85 24.44 27.60 30.41 35.46 35.25 37.88 32.24 28.20 19.76 20.92 26.91 27.63 31.50 37.07 36.48 34.43 29.52 24.15 19.52 18.06 30.39 37.19 39.18 37.73 28.45 36.94 38.38 38.11
41.14 41.13 41.22 41.33 40.89 40.46 36.72 35.82 37.08 33.40 25.06 25.20 27.47 21.74 20.48 28.33 27.18 26.21 28.37 28.62 31.13 34.47 29.83 22.67 22.86 25.14 32.07 26.73 27.65 28.88 28.56 27.28 24.56 19.99 20.45 26.80 34.45 38.47 40.12 27.70 29.27 38.04 38.52 38.77
40.81 40.97 41.23 41.54 41.31 40.84 35.12 35.00 36.28 33.80 28.21 26.40 29.39 30.06 27.29 28.01 28.94 19.61 23.83 24.94 27.86 26.15 24.61 26.35 25.73 25.17 27.86 28.13 30.53 29.96 28.84 25.37 23.56 25.20 17.93 19.98 37.52 36.78 33.29 36.14 37.08 39.73 39.29 39.45
40.34 40.60 41.10 41.07 41.43 41.27 38.77 32.51 35.86 37.87 30.69 26.68 31.34 32.65 33.68 32.93 31.96 25.95 25.87 21.81 26.65 27.25 24.21 25.00 25.46 26.47 26.30 26.51 24.12 33.39 28.06 31.14 28.25 29.76 28.24 36.04 37.86 37.70 39.66 40.25 39.86 40.48 41.24 41.13
39.85 40.41 40.80 41.27 41.33 41.54 39.85 34.20 35.97 34.12 30.32 25.24 24.97 26.68 32.16 35.41 34.36 34.13 21.50 26.65 30.87 30.83 31.37 27.46 27.30 24.67 30.18 24.65 25.24 29.15 33.69 37.73 32.00 31.52 34.30 35.97 37.67 39.54 41.28 40.93 40.76 42.79 42.16 41.27
39.65 40.03 40.43 41.02 41.28 40.99 40.93 34.39 34.61 34.73 30.95 22.72 22.72 32.78 30.58 36.62 35.42 34.06 33.31 31.07 32.86 31.28 31.52 27.94 25.17 23.70 31.33 26.96 30.78 28.21 32.96 36.06 34.29 33.40 36.09 37.55 38.12 38.60 39.56 40.59 41.34 41.30 42.29 41.33
40.68 40.56 40.98 41.26 41.18 41.34 40.04 36.72 33.56 34.72 27.28 20.14 21.45 28.45 31.70 34.07 33.32 32.12 34.24 33.33 30.59 29.30 28.39 26.73 25.20 29.97 29.28 29.37 30.21 28.23 33.80 32.54 30.79 30.18 37.72 36.45 37.01 39.00 40.90 40.70 40.48 41.04 40.55 40.98
41.15 41.39 41.47 41.53 41.31 41.27 34.95 28.28 30.94 34.62 32.47 26.47 18.12 26.03 27.84 30.82 32.79 32.56 31.99 32.55 29.75 28.54 25.11 28.28 28.14 32.20 29.35 26.07 25.75 34.87 34.31 36.02 37.91 34.84 36.98 37.81 39.67 40.41 41.49 41.09 41.70 42.37 41.55 40.96
41.72 41.48 41.60 41.97 41.13 38.86 30.08 26.57 30.03 37.97 37.07 26.97 20.79 20.03 27.41 32.05 30.85 30.04 29.49 31.39 27.76 26.74 23.46 20.15 25.91 27.57 32.04 26.74 23.80 32.87 34.46 34.47 36.51 37.87 38.34 37.35 39.26 39.14 42.05 41.50 41.49 42.67 41.53 41.95
41.81 40.60 40.26 40.70 41.56 40.16 33.35 36.22 39.64 33.98 25.21 24.36 19.56 19.35 21.64 30.03 23.25 22.82 32.32 28.80 27.76 24.64 23.94 24.24 24.47 26.87 27.05 18.14 27.63 31.73 34.20 35.30 36.78 35.79 37.36 37.77 38.47 41.09 43.35 42.65 41.39 40.63 39.93 40.51
40.60 40.04 40.59 39.20 35.66 31.43 32.67 39.45 40.03 32.41 25.16 11.83 20.13 16.70 10.19 26.29 25.39 27.55 29.00 29.78 19.53 26.45 19.77 20.48 24.63 22.37 19.57 26.02 28.02 30.72 33.13 33.79 33.51 35.20 34.83 36.44 36.66 37.41 42.17 42.89 40.80 39.73 38.68 40.35
40.06 37.83 32.13 27.75 32.63 38.59 38.24 30.97 27.18 27.93 28.48 28.81 20.86 22.35 17.40 22.64 22.42 23.63 25.33 28.52 25.27 13.38 22.44 25.14 21.69 20.89 27.10 28.21 29.63 31.49 32.64 33.60 33.77 30.20 30.27 31.55 34.09 35.64 36.89 40.89 42.68 41.13 39.49 39.04
33.40 29.56 25.75 35.26 38.65 32.45 23.09 21.59 20.80 16.74 14.85 19.15 22.68 21.89 19.41 25.97 19.87 21.92 22.80 23.52 25.11 16.90 21.67 20.14 20.45 21.17 26.30 29.51 29.74 31.55 32.18 32.83 32.94 32.86 33.17 33.60 34.58 35.77 36.58 39.99 40.48 39.18 39.59 38.56
33.04 32.53 35.55 33.41 23.82 19.28 17.04 17.70 17.61 19.80 17.71 21.00 20.42 20.68 22.32 23.23 27.12 20.41 24.32 19.17 24.27 18.45 24.80 18.17 16.00 23.08 27.19 28.85 30.41 31.84 31.78 32.29 32.94 33.77 33.42 35.04 36.04 36.36 36.35 38.45 38.50 37.05 38.00 37.72
33.56 28.82 23.74 22.64 17.42 12.35 11.16 5.53 16.10 17.38 21.64 22.47 22.66 20.24 23.77 24.62 26.57 21.85 22.93 20.61 20.62 22.65 7.75 13.99 18.92 23.85 26.43 28.69 31.60 32.04 33.12 33.00 32.46 32.92 34.04 34.06 33.78 34.72 34.57 34.35 34.41 35.31 35.39 36.53
24.79 21.47 13.87 15.44 9.48 17.21 18.10 19.38 20.21 22.69 22.56 21.71 23.24 21.19 25.44 26.08 21.28 23.48 19.50 22.29 19.93 10.79 10.50 16.35 20.19 24.56 26.87 28.86 30.53 32.06 31.13 31.72 31.32 30.78 30.96 31.49 30.46 29.45 29.74 30.15 30.07 30.43 31.33 32.83
21.30 22.25 13.42 17.99 22.27 21.41 22.01 23.09 22.28 23.01 22.79 24.33 23.10 24.68 25.65 25.93 23.59 23.86 22.14 15.35 11.89 16.96 14.40 18.84 21.85 25.40 27.19 28.04 29.67 30.37 30.44 31.02 31.37 31.21 30.26 29.29 29.09 28.67 29.25 29.03 30.32 30.95 28.97 30.95
26.07 25.83 22.00 23.14 20.91 18.26 20.11 23.14 23.45 26.06 26.10 26.27 24.10 22.38 19.09 21.76 23.70 19.57 14.56 17.74 14.86 18.75 20.77 21.71 25.82 26.72 27.51 28.08 28.93 30.46 30.58 30.62 30.62 30.36 30.85 30.77 29.12 28.55 29.28 29.56 30.05 25.66 26.42 24.85
24.37 20.95 23.94 24.01 22.00 20.87 23.99 23.02 23.69 27.46 25.80 21.45 23.69 17.03 16.73 20.53 16.46 18.92 20.35 17.67 21.41 22.29 22.24 24.79 27.38 28.11 28.54 29.00 29.19 29.52 29.75 30.48 29.79 29.41 29.93 30.71 32.17 31.39 30.61 29.38 29.91 29.90 30.78 27.19
MSLP
1024.60 1024.01 1023.39 1022.75 1022.01 1021.12 1020.44 1020.80 1019.88 1017.58 1017.11 1017.44 1017.50 1016.91 1015.95 1014.80 1013.63 1012.81 1012.09 1011.07 1010.29 1009.80 1008.97 1007.99 1006.90 1005.78 1004.71 1003.89 1004.39 1005.40 1005.82 1006.66 1006.80 1006.11 1005.86 1005.92 1006.95 1008.45 1009.81 1011.75 1013.97 1014.45 1014.14 1012.73
1024.69 1024.13 1023.57 1022.94 1022.26 1021.53 1021.48 1021.62 1020.77 1018.28 1017.84 1018.47 1018.17 1017.36 1016.26 1015.23 1014.27 1013.36 1012.45 1011.50 1010.77 1010.35 1009.94 1009.20 1007.57 1006.18 1004.57 1004.23 1004.41 1005.03 1005.63 1006.50 1007.43 1007.08 1006.99 1006.82 1007.10 1008.18 1009.18 1010.58 1012.22 1013.37 1013.65 1012.50
1024.76 1024.25 1023.72 1023.18 1022.54 1021.87 1022.04 1022.20 1021.77 1020.12 1019.79 1020.03 1019.36 1018.43 1017.11 1015.80 1014.67 1013.74 1012.88 1011.98 1011.41 1010.85 1010.39 1009.44 1008.50 1007.21 1005.62 1004.81 1004.57 1004.84 1005.43 1006.47 1006.95 1007.03 1006.86 1007.13 1007.59 1008.13 1008.85 1009.65 1011.36 1012.16 1011.98 1011.74
1024.80 1024.38 1023.90 1023.41 1022.80 1022.07 1022.32 1022.74 1022.94 1022.17 1021.35 1020.46 1019.93 1018.97 1018.03 1016.95 1015.87 1014.74 1013.55 1012.39 1012.38 1011.91 1011.00 1010.16 1009.24 1008.29 1007.07 1005.72 1005.47 1005.30 1005.62 1006.75 1007.13 1007.04 1006.94 1006.92 1007.12 1007.70 1008.29 1008.79 1009.54 1010.20 1010.80 1011.00
1024.83 1024.40 1024.05 1023.66 1023.13 1022.49 1022.96 1023.37 1023.14 1022.57 1021.85 1021.13 1020.43 1019.50 1019.00 1018.13 1017.16 1016.25 1014.79 1014.27 1013.44 1012.43 1011.69 1011.25 1010.60 1009.49 1008.48 1007.82 1006.81 1006.41 1006.39 1007.18 1007.46 1007.59 1007.24 1006.99 1007.18 1007.28 1007.61 1008.12 1008.80 1009.15 1009.49 1009.72
1024.76 1024.48 1024.17 1023.87 1023.47 1023.21 1023.36 1023.32 1023.21 1023.03 1022.27 1021.63 1021.06 1020.62 1019.86 1018.82 1018.13 1016.74 1016.18 1015.56 1014.44 1012.90 1012.14 1011.52 1010.61 1009.98 1009.11 1008.56 1008.31 1007.79 1007.29 1007.68 1008.32 1008.53 1007.76 1007.69 1007.33 1006.60 1007.05 1007.53 1007.78 1007.97 1008.79 1008.56
1024.68 1024.41 1024.16 1023.94 1023.69 1023.65 1023.82 1023.69 1023.59 1023.32 1022.68 1022.10 1021.52 1020.83 1020.13 1019.23 1018.44 1017.53 1016.08 1015.44 1014.52 1013.06 1012.32 1011.23 1009.70 1009.59 1009.07 1008.49 1008.25 1008.14 1007.98 1007.88 1008.42 1009.37 1008.67 1008.05 1005.99 1005.49 1005.71 1006.31 1006.69 1007.15 1007.40 1007.83
1024.52 1024.23 1024.00 1023.83 1023.66 1023.48 1023.79 1023.75 1023.89 1023.55 1023.00 1022.23 1021.39 1020.87 1020.34 1019.45 1018.47 1017.48 1016.50 1015.93 1015.07 1014.11 1013.19 1011.98 1010.84 1010.32 1009.51 1008.63 1008.00 1007.82 1007.92 1008.30 1009.22 1009.89 1009.40 1007.73 1006.30 1005.63 1005.70 1006.13 1006.51 1006.41 1006.73 1007.15
1024.21 1023.95 1023.76 1023.57 1023.47 1023.35 1023.56 1023.70 1023.71 1023.47 1023.05 1022.00 1021.53 1021.01 1020.37 1019.86 1019.12 1017.95 1016.71 1015.68 1014.77 1014.07 1013.50 1012.83 1011.95 1010.86 1009.79 1009.11 1008.16 1007.61 1007.93 1008.16 1009.00 1010.00 1009.52 1007.78 1006.42 1005.16 1004.77 1005.44 1006.11 1005.90 1006.05 1006.68
1023.88 1023.61 1023.42 1023.21 1023.13 1023.10 1023.33 1023.42 1023.54 1023.47 1023.05 1021.90 1021.39 1021.11 1020.66 1020.12 1019.56 1019.10 1017.98 1017.16 1015.78 1015.08 1014.43 1013.77 1012.73 1011.56 1010.39 1009.41 1008.42 1008.66 1008.57 1008.93 1009.48 1009.97 1009.21 1008.00 1006.10 1005.33 1004.93 1005.58 1006.03 1005.12 1005.41 1005.68
1023.65 1023.33 1023.09 1022.85 1022.71 1022.72 1023.14 1023.09 1023.03 1023.34 1022.88 1021.80 1021.10 1020.74 1020.39 1019.95 1019.72 1019.55 1018.71 1017.99 1017.38 1016.71 1015.89 1014.90 1013.49 1012.32 1010.83 1009.87 1008.71 1008.24 1008.30 1008.88 1009.75 1009.65 1009.17 1007.74 1005.79 1005.50 1005.48 1005.30 1004.91 1004.66 1004.95 1005.12
1023.32 1023.01 1022.75 1022.51 1022.41 1022.25 1022.51 1022.87 1022.75 1022.80 1023.04 1021.87 1020.75 1020.27 1019.79 1019.33 1018.96 1019.57 1019.20 1018.90 1018.61 1018.08 1017.66 1017.10 1015.72 1013.73 1012.18 1010.90 1009.73 1008.21 1008.35 1008.03 1008.41 1008.67 1007.88 1006.63 1005.87 1005.47 1005.29 1005.07 1004.85 1004.64 1004.71 1004.63
1022.85 1022.58 1022.38 1022.20 1021.96 1021.84 1021.95 1022.35 1022.53 1022.85 1022.56 1021.27 1020.61 1019.31 1018.36 1018.26 1018.47 1018.71 1019.17 1018.62 1018.21 1018.42 1018.10 1017.97 1017.06 1015.22 1013.74 1012.30 1011.05 1009.82 1008.41 1007.98 1008.26 1008.41 1007.99 1007.10 1006.60 1006.15 1005.91 1005.64 1005.38 1004.63 1004.31 1004.37
1022.30 1022.07 1021.84 1021.60 1021.49 1021.27 1021.37 1021.98 1022.03 1022.50 1022.48 1021.86 1019.81 1018.58 1018.10 1017.32 1017.41 1017.75 1017.91 1017.89 1018.14 1018.20 1018.17 1018.09 1017.51 1016.68 1015.24 1014.12 1012.86 1011.68 1009.88 1009.03 1008.38 1008.81 1008.37 1007.62 1007.25 1007.12 1006.73 1006.27 1005.76 1005.26 1004.81 1004.44
1021.49 1021.29 1021.06 1020.89 1020.83 1020.82 1020.80 1021.26 1021.40 1021.49 1022.24 1021.78 1020.19 1018.69 1016.82 1016.31 1016.35 1016.67 1017.04 1017.59 1017.82 1018.17 1018.31 1018.07 1017.39 1016.20 1015.56 1014.74 1013.66 1012.08 1010.74 1010.39 1009.88 1009.24 1008.95 1008.30 1007.83 1007.53 1007.07 1006.79 1006.54 1006.04 1005.57 1005.03
1020.52 1020.30 1020.12 1020.06 1020.28 1020.24 1020.92 1021.00 1020.71 1020.87 1021.43 1021.82 1020.96 1018.65 1017.13 1016.15 1015.83 1016.21 1016.66 1017.03 1017.56 1017.72 1017.92 1017.74 1016.92 1015.54 1015.43 1015.01 1013.67 1011.96 1011.17 1010.67 1010.32 1009.54 1008.49 1007.95 1007.73 1007.64 1007.39 1007.21 1006.96 1006.27 1005.64 1005.19
1019.44 1019.21 1019.12 1018.89 1019.33 1019.66 1020.54 1020.88 1020.34 1020.21 1020.90 1021.54 1021.00 1019.50 1017.34 1016.47 1016.01 1016.28 1016.64 1016.89 1017.28 1017.59 1017.90 1017.58 1016.96 1015.92 1015.30 1014.43 1013.33 1011.85 1011.49 1011.24 1010.37 1009.41 1008.36 1008.09 1007.95 1007.94 1007.81 1007.47 1007.36 1007.02 1006.24 1005.58
1018.59 1018.50 1018.62 1018.56 1018.58 1018.76 1019.83 1019.95 1020.00 1020.36 1020.97 1021.35 1021.19 1019.90 1018.49 1016.90 1016.89 1016.84 1016.76 1016.99 1017.47 1017.53 1017.51 1017.19 1016.70 1015.81 1015.19 1014.26 1012.42 1011.51 1011.59 1011.72 1010.83 1009.79 1009.15 1008.95 1008.61 1008.34 1008.32 1007.77 1007.70 1007.75 1007.54 1007.00
1018.12 1018.25 1018.20 1018.58 1018.84 1019.03 1019.13 1019.42 1019.77 1020.30 1021.24 1021.53 1021.11 1020.40 1019.35 1017.47 1017.30 1017.05 1016.97 1016.97 1017.25 1017.17 1017.26 1016.86 1016.33 1015.41 1014.47 1012.77 1012.08 1011.52 1011.25 1011.00 1010.63 1010.11 1009.70 1009.10 1008.72 1008.65 1008.51 1008.27 1008.37 1008.51 1008.56 1008.04
1018.22 1018.65 1018.81 1018.83 1019.08 1018.94 1019.29 1020.16 1020.45 1020.67 1020.69 1020.55 1020.30 1019.65 1019.19 1018.29 1017.91 1017.38 1017.22 1016.82 1016.72 1016.99 1016.37 1016.06 1015.77 1014.42 1012.76 1011.90 1011.45 1011.15 1010.60 1010.58 1010.55 1010.41 1009.99 1009.59 1009.35 1008.96 1008.87 1008.78 1008.34 1009.03 1009.34 1008.98
1018.40 1018.78 1019.09 1019.19 1019.07 1019.61 1020.23 1020.62 1020.93 1021.06 1020.63 1019.83 1019.05 1018.81 1018.60 1017.87 1017.81 1017.49 1017.20 1016.82 1016.71 1016.54 1015.79 1015.72 1015.19 1013.66 1011.67 1010.87 1010.65 1010.32 1010.06 1009.93 1010.27 1010.15 1009.87 1009.70 1009.59 1009.30 1009.24 1009.19 1009.15 1008.97 1009.42 1009.34
1017.51 1018.33 1019.13 1019.60 1019.89 1020.42 1020.79 1020.84 1020.82 1020.33 1019.44 1018.60 1018.33 1017.92 1018.02 1017.41 1017.11 1017.28 1017.14 1016.89 1016.45 1015.75 1015.50 1015.55 1014.46 1012.48 1011.07 1010.43 1009.89 1009.54 1009.49 1009.65 1009.76 1009.51 1009.62 1009.65 1009.67 1009.51 1009.51 1009.61 1009.76 1009.96 1009.98 1009.45
1017.80 1018.49 1019.29 1019.77 1020.52 1020.73 1020.75 1020.17 1019.42 1018.72 1017.90 1017.33 1017.31 1017.44 1017.28 1017.06 1016.94 1016.92 1016.78 1016.42 1015.72 1015.43 1015.88 1014.78 1013.15 1011.78 1010.98 1010.51 1010.15 1009.78 1009.77 1009.97 1009.93 1009.95 1010.03 1009.98 1009.97 1010.03 1010.30 1010.61 1010.78 1010.76 1010.62 1010.32
1017.91 1018.82 1019.70 1019.73 1019.92 1019.41 1018.43 1017.69 1017.25 1016.81 1016.59 1016.62 1016.66 1016.88 1016.82 1016.76 1016.89 1016.20 1016.18 1015.47 1015.19 1015.17 1015.02 1013.91 1012.58 1011.55 1010.93 1010.48 1010.32 1010.44 1010.47 1010.60 1010.67 1010.64 1010.67 1010.73 1010.85 1011.03 1010.98 1010.96 1010.92 1010.91 1011.05 1011.18
1017.99 1018.53 1018.79 1018.34 1017.64 1017.31 1016.98 1016.82 1016.68 1016.10 1015.97 1016.21 1016.33 1016.25 1016.17 1016.21 1016.17 1015.60 1015.30 1015.28 1014.85 1014.47 1013.81 1013.08 1012.07 1011.41 1011.07 1010.70 1010.51 1010.57 1010.61 1010.60 1010.61 1010.68 1010.97 1011.16 1011.27 1011.40 1011.46 1011.39 1011.41 1011.51 1011.50 1011.42
1017.58 1017.74 1017.55 1017.13 1017.21 1016.79 1016.60 1016.27 1015.94 1015.50 1015.59 1015.75 1015.80 1015.75 1015.92 1015.75 1015.31 1015.20 1014.79 1014.47 1013.90 1013.51 1012.93 1012.32 1011.75 1011.50 1011.19 1010.90 1010.75 1010.62 1010.53 1010.55 1010.58 1010.70 1010.80 1011.01 1011.23 1011.39 1011.64 1011.78 1011.87 1012.07 1012.00 1011.96
1017.22 1016.96 1016.43 1016.50 1016.41 1016.13 1015.56 1015.30 1014.91 1014.58 1015.16 1015.35 1015.39 1015.51 1015.20 1015.28 1014.96 1014.31 1013.75 1013.47 1012.93 1012.63 1012.56 1012.13 1011.64 1011.30 1011.05 1010.82 1010.70 1010.61 1010.49 1010.56 1010.61 1010.77 1010.93 1011.02 1011.13 1011.25 1011.34 1011.48 1011.58 1011.72 1011.65 1011.59
Wind_Speed
19 19 21 22 23 25 8 3 4 4 6 2 2 3 3 5 5 6 6 6 3 3 8 4 3 8 9 9 13 12 7 5 5 6 3 6 7 9 7 8 6 1 5 8
18 19 19 21 23 22 4 3 3 4 2 4 4 7 4 4 5 6 4 5 1 6 4 5 3 4 8 5 8 10 7 3 2 2 6 3 5 4 5 7 5 8 7 8
17 18 19 20 22 22 4 3 5 5 3 3 2 5 5 6 5 6 5 8 7 4 4 3 6 6 4 4 4 9 8 5 9 8 3 6 6 5 5 8 6 7 7 5
16 16 18 19 21 22 4 4 3 3 5 4 7 5 4 7 11 8 7 4 10 8 4 5 2 4 7 4 6 4 7 6 5 6 7 6 6 7 8 5 6 9 8 8
16 16 16 17 19 17 4 3 4 5 4 5 6 6 8 9 13 6 8 8 15 11 4 4 7 7 3 2 8 4 3 5 4 6 7 9 6 9 10 6 5 6 10 6
15 14 15 15 16 9 2 2 2 2 5 5 4 6 7 10 12 7 9 13 10 8 5 14 13 11 8 5 3 4 2 7 5 5 5 7 5 10 8 5 5 9 7 9
15 14 14 12 13 8 1 2 1 3 4 1 2 6 8 12 13 10 13 10 5 6 18 16 8 5 6 6 7 6 4 4 4 4 5 7 6 6 13 14 9 7 4 8
15 14 13 11 10 11 1 2 1 2 4 3 7 6 7 9 11 5 5 8 10 14 8 3 2 4 5 5 6 6 6 3 4 7 3 1 1 4 9 8 8 10 11 7
15 13 13 10 9 9 1 1 2 2 3 4 4 6 2 3 5 6 3 8 9 7 2 1 3 4 3 4 4 1 4 2 5 3 6 7 6 4 7 7 6 5 10 9
16 13 12 11 10 8 1 1 1 2 3 5 1 2 2 4 3 5 5 10 8 8 2 1 3 2 3 4 4 4 2 3 5 2 2 5 6 3 3 8 9 4 8 9
14 13 12 13 10 9 0 3 4 2 2 7 5 4 4 3 3 2 5 7 4 4 5 5 2 2 4 2 3 4 6 6 3 3 4 4 5 2 7 7 3 3 4 6
14 16 15 12 11 11 4 2 2 2 3 7 4 12 17 16 17 2 3 5 2 2 2 4 5 3 4 2 3 1 2 5 5 7 7 4 3 2 2 3 3 4 6 5
17 16 15 15 14 11 8 3 2 1 3 6 2 6 6 6 11 8 3 3 4 2 2 2 3 5 5 3 2 5 4 1 3 4 4 4 6 5 8 6 5 5 4 5
18 18 18 17 17 13 9 3 4 2 1 4 7 4 8 4 6 10 11 5 2 3 2 2 2 3 4 4 6 3 3 6 3 1 6 2 5 7 6 9 10 9 6 4
20 20 19 19 18 16 7 3 4 5 4 3 6 9 9 5 5 11 7 7 4 3 2 3 4 2 1 2 4 4 3 3 1 3 4 2 4 4 6 8 10 8 6 5
21 22 22 22 21 17 3 2 3 5 4 1 5 5 7 6 4 5 6 7 3 3 3 2 3 3 3 3 3 3 6 8 5 5 6 4 6 3 3 6 12 13 7 5
22 21 20 18 16 4 3 4 4 8 5 2 4 5 5 5 2 2 2 2 2 3 2 2 3 3 3 2 4 3 4 14 14 5 6 9 9 2 4 7 10 12 9 7
19 11 11 12 12 4 4 1 7 5 4 2 2 5 5 3 2 1 1 3 1 2 3 2 2 3 2 4 8 8 3 7 13 9 7 2 4 8 6 5 9 12 14 12
8 6 2 2 2 2 1 16 8 2 4 3 2 2 5 4 2 0 2 1 1 0 3 3 3 3 5 6 6 8 4 4 2 8 6 5 3 4 5 3 7 7 11 14
6 3 1 1 1 3 13 3 2 2 1 3 4 2 4 3 2 3 1 2 1 2 5 3 3 5 9 8 8 8 10 5 4 5 6 3 3 4 3 0 3 3 4 9
2 2 2 1 9 3 3 2 2 1 3 3 4 6 4 2 3 3 2 2 1 2 3 4 3 4 5 7 10 11 12 11 8 8 8 7 5 4 2 4 3 7 5 3
6 5 4 2 3 3 3 2 2 4 5 3 4 4 5 4 2 2 2 3 3 4 2 3 3 5 5 6 6 6 3 5 3 4 6 5 1 3 4 2 4 3 3 4
3 3 3 3 2 2 5 6 4 3 4 4 3 1 2 2 0 1 2 3 2 2 3 4 5 3 4 5 5 3 4 5 6 6 5 6 6 7 6 6 5 4 5 6
3 4 3 4 3 6 7 6 4 5 3 2 2 2 3 1 1 3 3 4 2 3 1 4 3 3 4 1 2 2 4 5 6 6 5 6 6 5 5 5 3 4 5 5
4 4 5 7 5 4 4 4 2 3 2 2 1 0 2 3 3 3 1 3 3 4 5 4 3 3 3 3 1 3 4 3 4 5 5 5 5 3 2 3 3 4 4 6
2 3 3 2 1 4 1 4 5 3 2 2 1 2 1 4 2 3 6 3 5 4 3 3 2 2 3 3 4 4 4 5 4 1 1 4 3 2 2 1 3 4 2 3
3 4 3 3 3 5 5 4 4 3 4 3 2 3 8 1 2 3 4 4 3 3 3 3 3 2 3 5 5 4 4 5 4 3 2 2 3 2 1 4 3 4 6 5
Wind_Direction
347 350 352 354 351 349 25 16 10 301 343 208 185 226 235 285 318 0 285 286 294 341 331 320 287 212 203 188 154 182 179 143 229 209 303 165 153 164 148 143 237 87 147 265
347 349 353 356 354 355 343 357 281 320 12 4 360 325 279 276 303 294 306 301 350 26 300 318 308 318 287 151 149 166 177 217 64 27 353 353 146 154 119 105 95 184 142 259
345 348 352 356 354 351 59 27 351 330 67 207 343 343 313 328 289 265 287 264 292 268 288 276 310 324 322 334 188 187 129 149 180 199 169 163 143 163 172 147 143 161 211 183
342 342 349 357 355 349 76 23 297 347 329 342 327 300 294 3 1 345 314 319 4 344 299 316 341 346 325 327 9 147 138 178 165 201 183 156 164 171 165 153 158 172 180 187
342 349 353 355 357 355 66 22 349 343 294 297 333 343 21 347 349 317 325 349 336 321 273 340 316 319 342 316 331 341 294 193 121 217 198 179 178 182 178 157 154 90 157 219
341 345 347 351 354 23 14 345 292 283 298 339 357 4 337 326 339 305 338 315 315 298 359 316 292 271 266 269 321 305 229 133 114 223 165 118 266 192 173 167 166 145 162 209
324 328 334 345 347 27 301 314 291 291 276 320 314 316 337 331 314 281 302 323 301 315 326 302 255 252 268 270 247 219 275 117 105 174 120 192 241 198 177 183 190 189 140 166
317 316 322 327 340 345 9 339 4 311 298 291 298 328 319 324 317 283 289 324 302 300 283 303 322 322 355 287 236 230 204 121 99 135 216 254 307 175 148 152 240 194 202 177
312 301 301 310 318 328 359 312 263 276 255 267 333 304 312 308 314 308 286 318 308 304 349 303 196 197 173 254 289 217 115 42 120 123 154 196 225 221 154 111 248 171 188 187
316 311 308 302 291 303 330 297 190 253 252 269 319 238 280 285 313 290 298 338 337 351 319 264 184 239 232 221 184 192 112 34 148 133 140 296 255 226 150 132 227 201 183 197
316 309 307 301 303 283 222 263 203 224 253 273 233 270 246 308 254 211 292 341 3 332 350 331 297 211 239 303 250 196 166 139 169 78 79 258 188 74 161 218 251 176 206 202
307 308 304 308 294 279 230 243 220 138 229 257 239 265 252 243 246 257 271 199 240 231 8 12 308 299 340 307 223 333 262 171 170 173 208 254 323 19 13 173 233 200 192 210
301 301 300 298 295 278 248 214 156 151 270 292 2 255 283 227 231 204 169 275 193 232 232 169 302 291 343 335 332 303 338 195 119 45 314 326 15 34 29 20 336 308 203 179
292 290 291 288 289 290 272 184 173 191 280 271 279 295 277 213 190 190 209 226 56 135 128 236 216 274 15 319 320 304 308 343 134 281 306 357 51 35 0 355 7 359 317 180
286 284 282 287 286 285 281 210 207 171 156 269 287 301 270 277 213 209 196 199 155 158 184 224 232 228 192 275 269 263 342 354 295 170 234 235 260 360 354 22 359 343 317 285
286 284 276 268 266 274 75 320 244 188 149 302 302 281 288 307 242 175 166 184 190 149 163 287 272 254 153 244 271 314 7 354 302 291 292 236 260 273 356 23 358 336 310 251
287 282 283 281 246 247 155 195 235 158 138 206 273 291 278 307 47 53 129 154 186 149 186 222 225 283 236 218 243 184 308 321 318 308 1 21 24 357 18 56 17 355 351 360
285 288 278 274 276 153 143 173 142 109 103 72 279 273 331 358 339 353 246 131 147 267 196 319 227 305 162 255 248 268 236 215 285 353 7 33 48 34 26 39 29 15 5 349
289 297 28 64 86 128 196 178 172 61 126 179 235 215 261 345 302 312 22 190 132 187 195 227 124 236 224 230 241 266 235 208 214 304 329 343 22 52 51 348 49 22 3 353
129 54 74 127 244 154 111 52 93 196 229 223 231 192 254 69 349 306 339 261 224 162 233 98 176 253 246 249 244 258 270 229 232 291 308 341 323 6 12 87 139 55 2 2
90 128 97 52 69 63 31 118 184 286 280 232 240 198 226 246 168 220 192 196 283 244 231 148 240 266 250 229 235 245 248 261 230 232 248 254 241 271 273 183 91 72 328 69
159 127 102 83 48 51 104 204 282 214 242 216 200 218 189 261 140 101 233 227 176 250 114 87 255 254 272 291 267 265 219 246 255 206 211 226 20 308 260 340 87 70 347 26
79 74 89 100 295 81 172 210 220 227 214 213 192 204 183 334 170 201 159 241 266 99 60 225 231 272 279 267 346 88 100 121 120 98 98 101 84 66 68 72 44 28 21 18
108 138 146 181 219 231 202 205 195 223 207 171 158 144 180 151 199 196 197 234 55 360 317 239 255 253 314 234 189 101 134 139 127 116 108 89 73 47 36 50 27 18 16 1
136 132 203 216 224 239 236 221 265 260 178 136 68 294 150 166 269 237 159 16 247 213 232 237 259 250 278 309 160 187 218 203 154 153 151 156 142 113 42 355 5 15 356 350
155 225 261 246 64 275 272 210 242 204 181 124 81 143 143 220 236 166 216 214 212 243 220 254 307 343 316 338 326 279 250 229 235 249 167 150 160 172 174 220 308 320 340 313
232 247 220 190 219 231 237 193 231 162 130 195 133 156 211 80 259 241 186 209 223 202 238 251 228 211 281 291 298 302 273 238 208 184 169 175 170 175 313 310 270 250 264 257